Simultaneous Nadir Overpasses (SNOs) Predictions

Prediction of SNOs between AQUA and NOAA-19 Satellite Orbit:

Table of predicted SNOs for the next 14.0 days since TLE Epoch: 12/25/2015
Index Date (AQUA) Time (AQUA) Lat,Lon (AQUA) SZA (AQUA ) Date (NOAA-19) Time (NOAA-19) Lat,Lon (NOAA-19) SZA (NOAA-19 ) Distance(km) Time Diff (sec)
1 12/27/2015 07:37:34 -80.64,-151.14 74.30 12/27/2015 07:36:50 -80.65,-151.20 74.27 1.19 44
2 12/27/2015 08:26:59 80.60, 16.99 105.62 12/27/2015 08:27:43 80.60, 17.09 105.60 1.76 44
3 12/29/2015 13:11:18 80.65, -54.63 105.63 12/29/2015 13:10:57 80.65, -54.80 105.67 3.29 21
4 12/31/2015 18:45:00 -80.63, 42.16 74.53 12/31/2015 18:45:11 -80.62, 42.28 74.55 2.12 11
5 01/02/2016 23:29:18 -80.66, -29.33 74.62 01/02/2016 23:28:24 -80.67, -29.41 74.58 1.63 54
6 01/03/2016 00:18:43 80.62, 138.76 105.31 01/03/2016 00:19:18 80.63, 138.70 105.31 1.12 35
7 01/05/2016 05:03:01 80.67, 67.15 105.21 01/05/2016 05:02:31 80.67, 67.06 105.23 1.68 30
8 01/05/2016 05:52:26 -80.62,-124.64 74.89 01/05/2016 05:53:34 -80.63,-124.81 74.90 3.16 68




NCC Satellite Simultaneous Nadir Overpasses (SNOs) Prediction Service
